Time,TemperatureF,DewpointF,PressureIn,WindDirection,WindDirectionDegrees,WindSpeedMPH,WindSpeedGustMPH,Humidity,HourlyPrecipIn,Conditions,Clouds,dailyrainin,SoftwareType,DateUTC
2013-02-28 00:01:00,35.0,26.0,30.06,WNW,296,4.0,-999.0,69,-99.99,,,-99.99,,2013-02-28 06:01:00,
2013-02-28 00:11:00,35.0,26.0,30.06,WNW,296,4.0,-999.0,69,-99.99,,,-99.99,,2013-02-28 06:11:00,
2013-02-28 00:22:00,34.0,26.0,30.06,WNW,284,5.0,-999.0,71,-99.99,,,-99.99,,2013-02-28 06:22:00,
2013-02-28 00:32:00,34.0,26.0,30.07,WNW,284,4.0,-999.0,71,-99.99,,,-99.99,,2013-02-28 06:32:00,
2013-02-28 00:42:00,34.0,26.0,30.07,WNW,284,4.0,-999.0,71,-99.99,,,-99.99,,2013-02-28 06:42:00,
2013-02-28 00:52:00,34.0,26.0,30.07,WNW,287,4.0,-999.0,71,-99.99,,,-99.99,,2013-02-28 06:52:00,
2013-02-28 01:01:00,34.0,26.0,30.07,WNW,302,4.0,-999.0,72,-99.99,,,-99.99,,2013-02-28 07:01:00,
2013-02-28 01:11:00,34.0,26.0,30.07,WNW,302,4.0,-999.0,72,-99.99,,,-99.99,,2013-02-28 07:11:00,
2013-02-28 01:21:00,34.0,26.0,30.07,West,281,4.0,-999.0,73,-99.99,,,-99.99,,2013-02-28 07:21:00,
2013-02-28 01:31:00,34.0,26.0,30.06,West,272,4.0,-999.0,73,-99.99,,,-99.99,,2013-02-28 07:31:00,
2013-02-28 01:41:00,34.0,26.0,30.06,West,272,4.0,-999.0,73,-99.99,,,-99.99,,2013-02-28 07:41:00,
2013-02-28 01:52:00,34.0,27.0,30.07,WSW,258,3.0,-999.0,74,-99.99,,,-99.99,,2013-02-28 07:52:00,
2013-02-28 02:01:00,33.0,26.0,30.07,WNW,285,3.0,-999.0,75,-99.99,,,-99.99,,2013-02-28 08:01:00,
2013-02-28 02:11:00,33.0,26.0,30.07,WNW,285,3.0,-999.0,75,-99.99,,,-99.99,,2013-02-28 08:11:00,
2013-02-28 02:22:00,33.0,26.0,30.08,West,265,2.0,-999.0,76,-99.99,,,-99.99,,2013-02-28 08:22:00,
2013-02-28 02:32:00,32.0,26.0,30.08,West,265,2.0,-999.0,77,-99.99,,,-99.99,,2013-02-28 08:32:00,
2013-02-28 02:42:00,32.0,26.0,30.08,West,265,2.0,-999.0,77,-99.99,,,-99.99,,2013-02-28 08:42:00,
2013-02-28 02:53:00,32.0,26.0,30.08,West,275,3.0,-999.0,77,-99.99,,,-99.99,,2013-02-28 08:53:00,
2013-02-28 03:03:00,32.0,26.0,30.08,West,271,3.0,-999.0,77,-99.99,,,-99.99,,2013-02-28 09:03:00,
2013-02-28 03:11:00,32.0,26.0,30.08,West,271,3.0,-999.0,77,-99.99,,,-99.99,,2013-02-28 09:11:00,
2013-02-28 03:22:00,32.0,26.0,30.08,West,271,3.0,-999.0,78,-99.99,,,-99.99,,2013-02-28 09:22:00,
2013-02-28 03:32:00,32.0,26.0,30.09,West,268,3.0,-999.0,78,-99.99,,,-99.99,,2013-02-28 09:32:00,
2013-02-28 03:42:00,32.0,26.0,30.09,West,268,3.0,-999.0,78,-99.99,,,-99.99,,2013-02-28 09:42:00,
2013-02-28 03:52:00,32.0,26.0,30.09,WNW,284,2.0,-999.0,78,-99.99,,,-99.99,,2013-02-28 09:52:00,
2013-02-28 04:01:00,32.0,26.0,30.08,West,271,2.0,-999.0,79,-99.99,,,-99.99,,2013-02-28 10:01:00,
2013-02-28 04:11:00,31.0,26.0,30.08,WSW,258,2.0,-999.0,81,-99.99,,,-99.99,,2013-02-28 10:11:00,
2013-02-28 04:21:00,31.0,26.0,30.08,WSW,258,2.0,-999.0,81,-99.99,,,-99.99,,2013-02-28 10:21:00,
2013-02-28 04:32:00,31.0,26.0,30.08,West,261,2.0,-999.0,81,-99.99,,,-99.99,,2013-02-28 10:32:00,
2013-02-28 04:42:00,31.0,26.0,30.08,West,261,2.0,-999.0,81,-99.99,,,-99.99,,2013-02-28 10:42:00,
2013-02-28 04:52:00,30.0,25.0,30.08,West,265,2.0,-999.0,83,-99.99,,,-99.99,,2013-02-28 10:52:00,
2013-02-28 05:01:00,30.0,25.0,30.08,West,270,2.0,-999.0,83,-99.99,,,-99.99,,2013-02-28 11:01:00,
2013-02-28 05:11:00,30.0,25.0,30.08,West,270,2.0,-999.0,83,-99.99,,,-99.99,,2013-02-28 11:11:00,
2013-02-28 05:21:00,30.0,26.0,30.09,WSW,258,1.0,-999.0,84,-99.99,,,-99.99,,2013-02-28 11:21:00,
2013-02-28 05:32:00,29.0,25.0,30.09,WSW,244,0.0,-999.0,84,-99.99,,,-99.99,,2013-02-28 11:32:00,
2013-02-28 05:42:00,29.0,25.0,30.09,WSW,244,0.0,-999.0,84,-99.99,,,-99.99,,2013-02-28 11:42:00,
2013-02-28 05:52:00,29.0,25.0,30.09,West,263,0.0,-999.0,85,-99.99,,,-99.99,,2013-02-28 11:52:00,
2013-02-28 06:01:00,29.0,25.0,30.09,WSW,258,0.0,-999.0,85,-99.99,,,-99.99,,2013-02-28 12:01:00,
2013-02-28 06:11:00,29.0,25.0,30.09,WSW,258,0.0,-999.0,85,-99.99,,,-99.99,,2013-02-28 12:11:00,
2013-02-28 06:21:00,29.0,25.0,30.11,WSW,254,0.0,-999.0,86,-99.99,,,-99.99,,2013-02-28 12:21:00,
2013-02-28 06:32:00,29.0,25.0,30.11,WSW,251,0.0,-999.0,86,-99.99,,,-99.99,,2013-02-28 12:32:00,
2013-02-28 06:42:00,29.0,25.0,30.11,WSW,251,0.0,-999.0,86,-99.99,,,-99.99,,2013-02-28 12:42:00,
2013-02-28 06:52:00,28.0,25.0,30.11,WSW,248,0.0,-999.0,87,-99.99,,,-99.99,,2013-02-28 12:52:00,
2013-02-28 07:01:00,28.0,25.0,30.11,WSW,244,0.0,-999.0,88,-99.99,,,-99.99,,2013-02-28 13:01:00,
2013-02-28 07:11:00,29.0,26.0,30.11,West,264,1.0,-999.0,87,-99.99,,,-99.99,,2013-02-28 13:11:00,
2013-02-28 07:21:00,29.0,26.0,30.11,West,264,1.0,-999.0,87,-99.99,,,-99.99,,2013-02-28 13:21:00,
2013-02-28 07:32:00,29.0,25.0,30.11,WSW,258,1.0,-999.0,86,-99.99,,,-99.99,,2013-02-28 13:32:00,
2013-02-28 07:42:00,29.0,25.0,30.11,WSW,258,1.0,-999.0,86,-99.99,,,-99.99,,2013-02-28 13:42:00,
2013-02-28 07:52:00,29.0,25.0,30.12,WNW,296,1.0,-999.0,85,-99.99,,,-99.99,,2013-02-28 13:52:00,
2013-02-28 08:01:00,30.0,25.0,30.12,WNW,296,2.0,-999.0,83,-99.99,,,-99.99,,2013-02-28 14:01:00,
2013-02-28 08:11:00,32.0,26.0,30.12,WNW,299,3.0,-999.0,77,-99.99,,,-99.99,,2013-02-28 14:11:00,
2013-02-28 08:22:00,32.0,26.0,30.12,WNW,299,3.0,-999.0,77,-99.99,,,-99.99,,2013-02-28 14:22:00,
2013-02-28 08:32:00,32.0,25.0,30.13,WNW,289,4.0,-999.0,75,-99.99,,,-99.99,,2013-02-28 14:32:00,
2013-02-28 08:42:00,33.0,25.0,30.13,West,274,4.0,-999.0,73,-99.99,,,-99.99,,2013-02-28 14:42:00,
2013-02-28 08:52:00,33.0,25.0,30.13,West,274,4.0,-999.0,73,-99.99,,,-99.99,,2013-02-28 14:52:00,
2013-02-28 09:02:00,33.0,25.0,30.14,West,272,4.0,-999.0,72,-99.99,,,-99.99,,2013-02-28 15:02:00,
2013-02-28 09:11:00,35.0,26.0,30.14,WNW,295,3.0,-999.0,70,-99.99,,,-99.99,,2013-02-28 15:11:00,
2013-02-28 09:21:00,35.0,26.0,30.14,WNW,295,3.0,-999.0,70,-99.99,,,-99.99,,2013-02-28 15:21:00,
2013-02-28 09:32:00,35.0,26.0,30.13,West,274,3.0,-999.0,68,-99.99,,,-99.99,,2013-02-28 15:32:00,
2013-02-28 09:41:00,35.0,26.0,30.13,West,274,3.0,-999.0,68,-99.99,,,-99.99,,2013-02-28 15:41:00,
2013-02-28 09:52:00,36.0,25.0,30.13,NW,306,5.0,-999.0,65,-99.99,,,-99.99,,2013-02-28 15:52:00,
2013-02-28 10:01:00,37.0,26.0,30.13,West,281,5.0,-999.0,64,-99.99,,,-99.99,,2013-02-28 16:01:00,
2013-02-28 10:11:00,37.0,26.0,30.12,WNW,294,5.0,-999.0,63,-99.99,,,-99.99,,2013-02-28 16:11:00,
2013-02-28 10:22:00,37.0,26.0,30.12,WNW,294,5.0,-999.0,63,-99.99,,,-99.99,,2013-02-28 16:22:00,
2013-02-28 10:32:00,38.0,26.0,30.12,WNW,285,4.0,-999.0,62,-99.99,,,-99.99,,2013-02-28 16:32:00,
2013-02-28 10:42:00,38.0,26.0,30.12,WNW,285,4.0,-999.0,62,-99.99,,,-99.99,,2013-02-28 16:42:00,
2013-02-28 10:52:00,38.0,26.0,30.12,WNW,287,4.0,-999.0,61,-99.99,,,-99.99,,2013-02-28 16:52:00,
2013-02-28 11:01:00,38.0,26.0,30.13,NNW,333,4.0,-999.0,61,-99.99,,,-99.99,,2013-02-28 17:01:00,
2013-02-28 11:11:00,39.0,26.0,30.13,NW,311,4.0,-999.0,60,-99.99,,,-99.99,,2013-02-28 17:11:00,
2013-02-28 11:21:00,39.0,26.0,30.13,NW,311,4.0,-999.0,60,-99.99,,,-99.99,,2013-02-28 17:21:00,
2013-02-28 11:32:00,39.0,26.0,30.13,West,274,5.0,-999.0,60,-99.99,,,-99.99,,2013-02-28 17:32:00,
2013-02-28 11:42:00,40.0,26.0,30.12,West,267,5.0,-999.0,58,-99.99,,,-99.99,,2013-02-28 17:42:00,
2013-02-28 11:52:00,40.0,26.0,30.12,West,267,5.0,-999.0,58,-99.99,,,-99.99,,2013-02-28 17:52:00,
2013-02-28 12:02:00,40.0,26.0,30.13,WNW,288,6.0,-999.0,57,-99.99,,,-99.99,,2013-02-28 18:02:00,
2013-02-28 12:11:00,41.0,26.0,30.12,WNW,288,5.0,-999.0,54,-99.99,,,-99.99,,2013-02-28 18:11:00,
2013-02-28 12:22:00,41.0,26.0,30.12,WNW,288,5.0,-999.0,54,-99.99,,,-99.99,,2013-02-28 18:22:00,
2013-02-28 12:32:00,42.0,27.0,30.12,West,278,4.0,-999.0,54,-99.99,,,-99.99,,2013-02-28 18:32:00,
2013-02-28 12:42:00,42.0,26.0,30.12,WNW,295,6.0,-999.0,52,-99.99,,,-99.99,,2013-02-28 18:42:00,
2013-02-28 12:52:00,42.0,26.0,30.12,WNW,295,6.0,-999.0,52,-99.99,,,-99.99,,2013-02-28 18:52:00,
2013-02-28 13:01:00,42.0,25.0,30.11,NNW,346,7.0,-999.0,51,-99.99,,,-99.99,,2013-02-28 19:01:00,
2013-02-28 13:11:00,43.0,26.0,30.11,NNE,24,7.0,-999.0,51,-99.99,,,-99.99,,2013-02-28 19:11:00,
2013-02-28 13:21:00,43.0,26.0,30.11,NNE,24,7.0,-999.0,51,-99.99,,,-99.99,,2013-02-28 19:21:00,
2013-02-28 13:32:00,43.0,26.0,30.10,WNW,287,6.0,-999.0,50,-99.99,,,-99.99,,2013-02-28 19:32:00,
2013-02-28 13:41:00,43.0,26.0,30.10,WNW,287,6.0,-999.0,50,-99.99,,,-99.99,,2013-02-28 19:41:00,
2013-02-28 13:52:00,44.0,27.0,30.10,West,280,6.0,-999.0,50,-99.99,,,-99.99,,2013-02-28 19:52:00,
2013-02-28 14:01:00,44.0,26.0,30.09,West,268,6.0,-999.0,49,-99.99,,,-99.99,,2013-02-28 20:01:00,
2013-02-28 14:12:00,44.0,27.0,30.09,NW,319,6.0,-999.0,50,-99.99,,,-99.99,,2013-02-28 20:12:00,
2013-02-28 14:21:00,44.0,27.0,30.09,NW,319,6.0,-999.0,50,-99.99,,,-99.99,,2013-02-28 20:21:00,
2013-02-28 14:32:00,44.0,27.0,30.09,NW,305,7.0,-999.0,50,-99.99,,,-99.99,,2013-02-28 20:32:00,
2013-02-28 14:42:00,44.0,27.0,30.09,NW,305,7.0,-999.0,50,-99.99,,,-99.99,,2013-02-28 20:42:00,
2013-02-28 14:52:00,44.0,27.0,30.09,West,270,5.0,-999.0,50,-99.99,,,-99.99,,2013-02-28 20:52:00,
2013-02-28 15:01:00,44.0,27.0,30.09,WNW,285,7.0,-999.0,50,-99.99,,,-99.99,,2013-02-28 21:01:00,
2013-02-28 15:11:00,44.0,27.0,30.09,WNW,285,7.0,-999.0,50,-99.99,,,-99.99,,2013-02-28 21:11:00,
2013-02-28 15:22:00,44.0,27.0,30.09,WNW,296,6.0,-999.0,50,-99.99,,,-99.99,,2013-02-28 21:22:00,
2013-02-28 15:32:00,45.0,27.0,30.09,NW,325,4.0,-999.0,50,-99.99,,,-99.99,,2013-02-28 21:32:00,
2013-02-28 15:41:00,45.0,27.0,30.09,NW,325,4.0,-999.0,50,-99.99,,,-99.99,,2013-02-28 21:41:00,
2013-02-28 15:52:00,43.0,27.0,30.09,WNW,301,7.0,-999.0,52,-99.99,,,-99.99,,2013-02-28 21:52:00,
2013-02-28 16:01:00,44.0,27.0,30.10,West,280,5.0,-999.0,50,-99.99,,,-99.99,,2013-02-28 22:01:00,
2013-02-28 16:11:00,44.0,27.0,30.10,North,360,5.0,-999.0,51,-99.99,,,-99.99,,2013-02-28 22:11:00,
2013-02-28 16:21:00,44.0,27.0,30.10,North,360,5.0,-999.0,51,-99.99,,,-99.99,,2013-02-28 22:21:00,
2013-02-28 16:32:00,43.0,27.0,30.09,NW,326,5.0,-999.0,53,-99.99,,,-99.99,,2013-02-28 22:32:00,
2013-02-28 16:41:00,43.0,27.0,30.09,NW,326,5.0,-999.0,53,-99.99,,,-99.99,,2013-02-28 22:41:00,
2013-02-28 16:52:00,43.0,27.0,30.09,NW,305,4.0,-999.0,53,-99.99,,,-99.99,,2013-02-28 22:52:00,
2013-02-28 17:01:00,42.0,27.0,30.09,WSW,256,5.0,-999.0,54,-99.99,,,-99.99,,2013-02-28 23:01:00,
2013-02-28 17:11:00,42.0,27.0,30.09,NNW,342,4.0,-999.0,55,-99.99,,,-99.99,,2013-02-28 23:11:00,
2013-02-28 17:22:00,42.0,27.0,30.09,NNW,342,4.0,-999.0,55,-99.99,,,-99.99,,2013-02-28 23:22:00,
2013-02-28 17:31:00,42.0,28.0,30.10,NW,322,4.0,-999.0,57,-99.99,,,-99.99,,2013-02-28 23:31:00,
2013-02-28 17:41:00,42.0,28.0,30.10,NW,322,4.0,-999.0,57,-99.99,,,-99.99,,2013-02-28 23:41:00,
2013-02-28 17:53:00,41.0,27.0,30.10,North,360,3.0,-999.0,57,-99.99,,,-99.99,,2013-02-28 23:53:00,
2013-02-28 18:01:00,41.0,27.0,30.10,North,1,4.0,-999.0,57,-99.99,,,-99.99,,2013-03-01 00:01:00,
2013-02-28 18:11:00,40.0,27.0,30.10,NNW,346,4.0,-999.0,60,-99.99,,,-99.99,,2013-03-01 00:11:00,
2013-02-28 18:22:00,40.0,27.0,30.10,NNW,346,4.0,-999.0,60,-99.99,,,-99.99,,2013-03-01 00:22:00,
2013-02-28 18:32:00,39.0,27.0,30.11,NW,318,3.0,-999.0,61,-99.99,,,-99.99,,2013-03-01 00:32:00,
2013-02-28 18:41:00,39.0,27.0,30.11,NW,318,3.0,-999.0,61,-99.99,,,-99.99,,2013-03-01 00:41:00,
2013-02-28 18:52:00,39.0,27.0,30.11,NW,325,3.0,-999.0,61,-99.99,,,-99.99,,2013-03-01 00:52:00,
2013-02-28 19:01:00,39.0,27.0,30.11,NW,320,3.0,-999.0,61,-99.99,,,-99.99,,2013-03-01 01:01:00,
2013-02-28 19:11:00,39.0,27.0,30.12,North,359,3.0,-999.0,62,-99.99,,,-99.99,,2013-03-01 01:11:00,
2013-02-28 19:21:00,39.0,27.0,30.12,North,359,3.0,-999.0,62,-99.99,,,-99.99,,2013-03-01 01:21:00,
2013-02-28 19:32:00,38.0,26.0,30.12,NW,304,3.0,-999.0,62,-99.99,,,-99.99,,2013-03-01 01:32:00,
2013-02-28 19:42:00,38.0,26.0,30.12,NW,304,3.0,-999.0,62,-99.99,,,-99.99,,2013-03-01 01:42:00,
2013-02-28 19:52:00,38.0,27.0,30.12,North,360,4.0,-999.0,63,-99.99,,,-99.99,,2013-03-01 01:52:00,
2013-02-28 20:01:00,38.0,27.0,30.12,North,3,3.0,-999.0,63,-99.99,,,-99.99,,2013-03-01 02:01:00,
2013-02-28 20:11:00,38.0,27.0,30.12,North,360,3.0,-999.0,63,-99.99,,,-99.99,,2013-03-01 02:11:00,
2013-02-28 20:21:00,38.0,27.0,30.12,North,360,3.0,-999.0,63,-99.99,,,-99.99,,2013-03-01 02:21:00,
2013-02-28 20:31:00,38.0,27.0,30.12,NNW,335,4.0,-999.0,63,-99.99,,,-99.99,,2013-03-01 02:31:00,
2013-02-28 20:42:00,38.0,27.0,30.12,NNW,335,4.0,-999.0,63,-99.99,,,-99.99,,2013-03-01 02:42:00,
2013-02-28 20:52:00,37.0,26.0,30.12,NW,326,3.0,-999.0,65,-99.99,,,-99.99,,2013-03-01 02:52:00,
2013-02-28 21:01:00,37.0,26.0,30.13,NNW,330,3.0,-999.0,64,-99.99,,,-99.99,,2013-03-01 03:01:00,
2013-02-28 21:11:00,37.0,25.0,30.14,West,278,3.0,-999.0,62,-99.99,,,-99.99,,2013-03-01 03:11:00,
2013-02-28 21:21:00,37.0,25.0,30.14,West,278,3.0,-999.0,62,-99.99,,,-99.99,,2013-03-01 03:21:00,
2013-02-28 21:32:00,37.0,25.0,30.14,NNW,343,2.0,-999.0,62,-99.99,,,-99.99,,2013-03-01 03:32:00,
2013-02-28 21:42:00,37.0,25.0,30.14,NNW,343,2.0,-999.0,62,-99.99,,,-99.99,,2013-03-01 03:42:00,
2013-02-28 21:52:00,37.0,26.0,30.14,NNW,339,2.0,-999.0,63,-99.99,,,-99.99,,2013-03-01 03:52:00,
2013-02-28 22:01:00,37.0,26.0,30.14,NNW,328,2.0,-999.0,64,-99.99,,,-99.99,,2013-03-01 04:01:00,
2013-02-28 22:11:00,37.0,26.0,30.14,North,359,3.0,-999.0,65,-99.99,,,-99.99,,2013-03-01 04:11:00,
2013-02-28 22:21:00,37.0,26.0,30.14,North,359,3.0,-999.0,65,-99.99,,,-99.99,,2013-03-01 04:21:00,
2013-02-28 22:32:00,36.0,25.0,30.14,WNW,291,3.0,-999.0,65,-99.99,,,-99.99,,2013-03-01 04:32:00,
2013-02-28 22:42:00,36.0,25.0,30.14,WNW,291,3.0,-999.0,65,-99.99,,,-99.99,,2013-03-01 04:42:00,
2013-02-28 22:52:00,36.0,25.0,30.14,NW,318,4.0,-999.0,65,-99.99,,,-99.99,,2013-03-01 04:52:00,
2013-02-28 23:02:00,36.0,25.0,30.14,WNW,296,3.0,-999.0,65,-99.99,,,-99.99,,2013-03-01 05:02:00,
2013-02-28 23:11:00,36.0,25.0,30.14,WNW,296,3.0,-999.0,65,-99.99,,,-99.99,,2013-03-01 05:11:00,
2013-02-28 23:22:00,36.0,25.0,30.14,NW,311,4.0,-999.0,65,-99.99,,,-99.99,,2013-03-01 05:22:00,
2013-02-28 23:32:00,35.0,24.0,30.13,NW,309,4.0,-999.0,65,-99.99,,,-99.99,,2013-03-01 05:32:00,
2013-02-28 23:42:00,35.0,24.0,30.13,NW,309,4.0,-999.0,65,-99.99,,,-99.99,,2013-03-01 05:42:00,
2013-02-28 23:52:00,35.0,24.0,30.13,NNW,335,3.0,-999.0,65,-99.99,,,-99.99,,2013-03-01 05:52:00,